Location: La Pernelle
(49.6188°N, 1.2999°W)
Time: 03:54:26
(UTC+00:00)

NOSS 3-2 (A) - Pass Details

Date: 16 October 2021
Orbit: 771 x 1437 km, 63.4° (Epoch: 21 November)

Event Time Altitude Azimuth Distance (km) Brightness Sun altitude
Rises 18:32:32 0° 282° (WNW) 3,523 8.3 -13.7°
Reaches altitude 10° 18:35:20 10° 295° (WNW) 2,675 6.9 -14.2°
Maximum altitude 18:40:36 27° 352° (N) 1,900 5.1 -15.1°
Drops below altitude 10° 18:46:37 10° 48° (NE) 3,078 5.7 -16.0°
Enters shadow 18:46:59 - 49° (NE) 3,190 5.8 -16.1°
